This is the latest recevied weather packets stored in our database for station/object SV9TNF-2. If no packets are shown the sender has not sent any weather packets the latest 10 day(s).
| Time | Temp. | Humidity | Pressure | Rain* | Wind** | Luminosity | Snow |
|---|---|---|---|---|---|---|---|
| 1777490673 | 15.56° C | 66% | 1022.7 hPa | 0 mm | 8.05 m/s, 176° | - | - |
| 1777490373 | 15.56° C | 66% | 1022.7 hPa | 0 mm | 7.6 m/s, 180° | - | - |
| 1777490073 | 15.56° C | 66% | 1022.7 hPa | 0 mm | 5.36 m/s, 181° | - | - |
| 1777489773 | 15° C | 68% | 1022.7 hPa | 0 mm | 8.05 m/s, 163° | - | - |
| 1777489473 | 15° C | 69% | 1022.7 hPa | 0 mm | 5.36 m/s, 181° | - | - |
| 1777489173 | 15° C | 69% | 1022.7 hPa | 0 mm | 5.81 m/s, 194° | - | - |
| 1777488873 | 15° C | 70% | 1022.7 hPa | 0 mm | 5.36 m/s, 166° | - | - |
| 1777488573 | 15.56° C | 71% | 1022.7 hPa | 0 mm | 7.15 m/s, 190° | - | - |
| 1777488272 | 15.56° C | 72% | 1022.7 hPa | 0 mm | 4.92 m/s, 233° | - | - |
| 1777487972 | 15.56° C | 73% | 1022.7 hPa | 0 mm | 7.15 m/s, 186° | - | - |
| 1777487672 | 15.56° C | 73% | 1022.4 hPa | 0 mm | 7.6 m/s, 196° | - | - |
| 1777487372 | 15.56° C | 74% | 1022.4 hPa | 0 mm | 6.71 m/s, 206° | - | - |
| 1777487072 | 15.56° C | 74% | 1022.4 hPa | 0 mm | 6.26 m/s, 179° | - | - |
| 1777486772 | 15.56° C | 74% | 1022.4 hPa | 0 mm | 6.26 m/s, 168° | - | - |
| 1777486472 | 15.56° C | 74% | 1022.4 hPa | 0 mm | 5.36 m/s, 216° | - | - |
| 1777486172 | 16.11° C | 74% | 1022.4 hPa | 0 mm | 4.92 m/s, 214° | - | - |
| 1777485872 | 16.11° C | 74% | 1022.4 hPa | 0 mm | 5.81 m/s, 179° | - | - |
| 1777485271 | 16.67° C | 74% | 1022.4 hPa | 0 mm | 5.36 m/s, 190° | - | - |
| 1777484971 | 16.67° C | 74% | 1022.4 hPa | 0 mm | 6.26 m/s, 186° | - | - |
| 1777484671 | 16.67° C | 74% | 1022.4 hPa | 0 mm | 4.47 m/s, 234° | - | - |
| 1777484371 | 17.22° C | 73% | 1022.4 hPa | 0 mm | 2.68 m/s, 216° | - | - |
| 1777484071 | 17.78° C | 73% | 1022.4 hPa | 0 mm | 1.79 m/s, 189° | - | - |
| 1777483771 | 17.78° C | 72% | 1022.4 hPa | 0 mm | 1.34 m/s, 231° | - | - |
| 1777483471 | 18.33° C | 72% | 1022 hPa | 0 mm | 1.79 m/s, 177° | - | - |
| 1777483171 | 18.33° C | 70% | 1022 hPa | 0 mm | 0.89 m/s, 230° | - | - |
* Rain latest hour (hover to see other rain measurements)
** Current wind speed in m/s (hover to see current wind gust speed)